Year,Month,Day,Hour,Minute,Value (Times are PST for temperature in C)
2018,07,23,00,00,19.00
2018,07,23,00,01,18.90
2018,07,23,00,02,18.90
2018,07,23,00,03,18.90
2018,07,23,00,04,18.90
2018,07,23,00,05,18.90
2018,07,23,00,06,18.90
2018,07,23,00,07,18.80
2018,07,23,00,08,18.80
2018,07,23,00,09,18.80
2018,07,23,00,10,18.80
2018,07,23,00,11,18.80
2018,07,23,00,12,18.70
2018,07,23,00,13,18.70
2018,07,23,00,14,18.70
2018,07,23,00,15,18.70
2018,07,23,00,16,18.70
2018,07,23,00,17,18.70
2018,07,23,00,18,18.60
2018,07,23,00,19,18.60
2018,07,23,00,20,18.60
2018,07,23,00,21,18.50
2018,07,23,00,22,18.50
2018,07,23,00,23,18.40
2018,07,23,00,24,18.40
2018,07,23,00,25,18.40
2018,07,23,00,26,18.40
2018,07,23,00,27,18.30
2018,07,23,00,28,18.30
2018,07,23,00,29,18.30
2018,07,23,00,30,18.20
2018,07,23,00,31,18.20
2018,07,23,00,32,18.20
2018,07,23,00,33,18.20
2018,07,23,00,34,18.10
2018,07,23,00,35,18.10
2018,07,23,00,36,18.10
2018,07,23,00,37,18.10
2018,07,23,00,38,18.10
2018,07,23,00,39,18.00
2018,07,23,00,40,18.00
2018,07,23,00,41,18.00
2018,07,23,00,42,18.00
2018,07,23,00,43,18.00
2018,07,23,00,44,17.90
2018,07,23,00,45,17.90
2018,07,23,00,46,17.90
2018,07,23,00,47,17.90
2018,07,23,00,48,17.90
2018,07,23,00,49,17.80
2018,07,23,00,50,17.80
2018,07,23,00,51,17.80
2018,07,23,00,52,17.80
2018,07,23,00,53,17.80
2018,07,23,00,54,17.70
2018,07,23,00,55,17.70
2018,07,23,00,56,17.70
2018,07,23,00,57,17.70
2018,07,23,00,58,17.60
2018,07,23,00,59,17.60
2018,07,23,01,00,17.60
2018,07,23,01,01,17.50
2018,07,23,01,02,17.50
2018,07,23,01,03,17.50
2018,07,23,01,04,17.40
2018,07,23,01,05,17.40
2018,07,23,01,06,17.40
2018,07,23,01,07,17.40
2018,07,23,01,08,17.40
2018,07,23,01,09,17.30
2018,07,23,01,10,17.30
2018,07,23,01,11,17.30
2018,07,23,01,12,17.30
2018,07,23,01,13,17.30
2018,07,23,01,14,17.30
2018,07,23,01,15,17.30
2018,07,23,01,16,17.30
2018,07,23,01,17,17.30
2018,07,23,01,18,17.30
2018,07,23,01,19,17.20
2018,07,23,01,20,17.20
2018,07,23,01,21,17.20
2018,07,23,01,22,17.20
2018,07,23,01,23,17.20
2018,07,23,01,24,17.20
2018,07,23,01,25,17.20
2018,07,23,01,26,17.10
2018,07,23,01,27,17.10
2018,07,23,01,28,17.10
2018,07,23,01,29,17.10
2018,07,23,01,30,17.00
2018,07,23,01,31,17.00
2018,07,23,01,32,16.90
2018,07,23,01,33,16.90
2018,07,23,01,34,16.90
2018,07,23,01,35,16.90
2018,07,23,01,36,16.90
2018,07,23,01,37,16.80
2018,07,23,01,38,16.80
2018,07,23,01,39,16.80
2018,07,23,01,40,16.80
2018,07,23,01,41,16.80
2018,07,23,01,42,16.80
2018,07,23,01,43,16.80
2018,07,23,01,44,16.80
2018,07,23,01,45,16.80
2018,07,23,01,46,16.80
2018,07,23,01,47,16.80
2018,07,23,01,48,16.80
2018,07,23,01,49,16.80
2018,07,23,01,50,16.80
2018,07,23,01,51,16.80
2018,07,23,01,52,16.80
2018,07,23,01,53,16.80
2018,07,23,01,54,16.80
2018,07,23,01,55,16.80
2018,07,23,01,56,16.80
2018,07,23,01,57,16.80
2018,07,23,01,58,16.70
2018,07,23,01,59,16.70
2018,07,23,02,00,16.70
2018,07,23,02,01,16.70
2018,07,23,02,02,16.60
2018,07,23,02,03,16.60
2018,07,23,02,04,16.60
2018,07,23,02,05,16.60
2018,07,23,02,06,16.50
2018,07,23,02,07,16.50
2018,07,23,02,08,16.40
2018,07,23,02,09,16.40
2018,07,23,02,10,16.40
2018,07,23,02,11,16.40
2018,07,23,02,12,16.40
2018,07,23,02,13,16.30
2018,07,23,02,14,16.30
2018,07,23,02,15,16.30
2018,07,23,02,16,16.30
2018,07,23,02,17,16.30
2018,07,23,02,18,16.30
2018,07,23,02,19,16.30
2018,07,23,02,20,16.30
2018,07,23,02,21,16.30
2018,07,23,02,22,16.20
2018,07,23,02,23,16.20
2018,07,23,02,24,16.20
2018,07,23,02,25,16.20
2018,07,23,02,26,16.20
2018,07,23,02,27,16.20
2018,07,23,02,28,16.20
2018,07,23,02,29,16.20
2018,07,23,02,30,16.10
2018,07,23,02,31,16.10
2018,07,23,02,32,16.10
2018,07,23,02,33,16.10
2018,07,23,02,34,16.10
2018,07,23,02,35,16.10
2018,07,23,02,36,16.10
2018,07,23,02,37,16.00
2018,07,23,02,38,16.00
2018,07,23,02,39,16.00
2018,07,23,02,40,16.00
2018,07,23,02,41,16.00
2018,07,23,02,42,16.00
2018,07,23,02,43,16.00
2018,07,23,02,44,15.90
2018,07,23,02,45,15.90
2018,07,23,02,46,15.90
2018,07,23,02,47,15.90
2018,07,23,02,48,15.90
2018,07,23,02,49,15.90
2018,07,23,02,50,15.90
2018,07,23,02,51,15.90
2018,07,23,02,52,15.90
2018,07,23,02,53,15.90
2018,07,23,02,54,15.90
2018,07,23,02,55,15.90
2018,07,23,02,56,15.90
2018,07,23,02,57,15.90
2018,07,23,02,58,15.90
2018,07,23,02,59,15.90
2018,07,23,03,00,15.90
2018,07,23,03,01,15.90
2018,07,23,03,02,15.90
2018,07,23,03,03,15.90
2018,07,23,03,04,15.90
2018,07,23,03,05,15.80
2018,07,23,03,06,15.80
2018,07,23,03,07,15.80
2018,07,23,03,08,15.80
2018,07,23,03,09,15.80
2018,07,23,03,10,15.70
2018,07,23,03,11,15.70
2018,07,23,03,12,15.70
2018,07,23,03,13,15.60
2018,07,23,03,14,15.60
2018,07,23,03,15,15.60
2018,07,23,03,16,15.60
2018,07,23,03,17,15.50
2018,07,23,03,18,15.50
2018,07,23,03,19,15.50
2018,07,23,03,20,15.40
2018,07,23,03,21,15.40
2018,07,23,03,22,15.40
2018,07,23,03,23,15.40
2018,07,23,03,24,15.40
2018,07,23,03,25,15.40
2018,07,23,03,26,15.40
2018,07,23,03,27,15.40
2018,07,23,03,28,15.40
2018,07,23,03,29,15.40
2018,07,23,03,30,15.40
2018,07,23,03,31,15.40
2018,07,23,03,32,15.30
2018,07,23,03,33,15.40
2018,07,23,03,34,15.40
2018,07,23,03,35,15.40
2018,07,23,03,36,15.40
2018,07,23,03,37,15.40
2018,07,23,03,38,15.40
2018,07,23,03,39,15.40
2018,07,23,03,40,15.30
2018,07,23,03,41,15.30
2018,07,23,03,42,15.30
2018,07,23,03,43,15.30
2018,07,23,03,44,15.30
2018,07,23,03,45,15.30
2018,07,23,03,46,15.30
2018,07,23,03,47,15.30
2018,07,23,03,48,15.30
2018,07,23,03,49,15.30
2018,07,23,03,50,15.20
2018,07,23,03,51,15.20
2018,07,23,03,52,15.20
2018,07,23,03,53,15.20
2018,07,23,03,54,15.20
2018,07,23,03,55,15.20
2018,07,23,03,56,15.10
2018,07,23,03,57,15.10
2018,07,23,03,58,15.10
2018,07,23,03,59,15.10
2018,07,23,04,00,15.00
2018,07,23,04,01,15.00
2018,07,23,04,02,15.00
2018,07,23,04,03,15.00
2018,07,23,04,04,15.00
2018,07,23,04,05,15.00
2018,07,23,04,06,15.00
2018,07,23,04,07,15.00
2018,07,23,04,08,15.00
2018,07,23,04,09,15.00
2018,07,23,04,10,15.00
2018,07,23,04,11,15.00
2018,07,23,04,12,15.00
2018,07,23,04,13,15.00
2018,07,23,04,14,15.00
2018,07,23,04,15,15.00
2018,07,23,04,16,15.00
2018,07,23,04,17,15.00
2018,07,23,04,18,15.00
2018,07,23,04,19,15.00
2018,07,23,04,20,15.00
2018,07,23,04,21,15.00
2018,07,23,04,22,15.00
2018,07,23,04,23,15.00
2018,07,23,04,24,15.00
2018,07,23,04,25,15.00
2018,07,23,04,26,15.00
2018,07,23,04,27,15.00
2018,07,23,04,28,15.00
2018,07,23,04,29,14.90
2018,07,23,04,30,14.80
2018,07,23,04,31,14.80
2018,07,23,04,32,14.80
2018,07,23,04,33,14.80
2018,07,23,04,34,14.80
2018,07,23,04,35,14.80
2018,07,23,04,36,14.80
2018,07,23,04,37,14.70
2018,07,23,04,38,14.70
2018,07,23,04,39,14.70
2018,07,23,04,40,14.70
2018,07,23,04,41,14.70
2018,07,23,04,42,14.70
2018,07,23,04,43,14.70
2018,07,23,04,44,14.70
2018,07,23,04,45,14.70
2018,07,23,04,46,14.60
2018,07,23,04,47,14.60
2018,07,23,04,48,14.60
2018,07,23,04,49,14.60
2018,07,23,04,50,14.60
2018,07,23,04,51,14.60
2018,07,23,04,52,14.60
2018,07,23,04,53,14.60
2018,07,23,04,54,14.60
2018,07,23,04,55,14.60
2018,07,23,04,56,14.60
2018,07,23,04,57,14.60
2018,07,23,04,58,14.60
2018,07,23,04,59,14.60
2018,07,23,05,00,14.60
2018,07,23,05,01,14.60
2018,07,23,05,02,14.60
2018,07,23,05,03,14.60
2018,07,23,05,04,14.50
2018,07,23,05,05,14.50
2018,07,23,05,06,14.50
2018,07,23,05,07,14.50
2018,07,23,05,08,14.50
2018,07,23,05,09,14.50
2018,07,23,05,10,14.50
2018,07,23,05,11,14.50
2018,07,23,05,12,14.50
2018,07,23,05,13,14.40
2018,07,23,05,14,14.40
2018,07,23,05,15,14.40
2018,07,23,05,16,14.40
2018,07,23,05,17,14.40
2018,07,23,05,18,14.40
2018,07,23,05,19,14.40
2018,07,23,05,20,14.30
2018,07,23,05,21,14.30
2018,07,23,05,22,14.30
2018,07,23,05,23,14.30
2018,07,23,05,24,14.30
2018,07,23,05,25,14.20
2018,07,23,05,26,14.20
2018,07,23,05,27,14.20
2018,07,23,05,28,14.20
2018,07,23,05,29,14.20
2018,07,23,05,30,14.10
2018,07,23,05,31,14.10
2018,07,23,05,32,14.10
2018,07,23,05,33,14.10
2018,07,23,05,34,14.10
2018,07,23,05,35,14.10
2018,07,23,05,36,14.00
2018,07,23,05,37,14.00
2018,07,23,05,38,14.00
2018,07,23,05,39,14.00
2018,07,23,05,40,14.00
2018,07,23,05,41,14.00
2018,07,23,05,42,14.00
2018,07,23,05,43,13.90
2018,07,23,05,44,13.90
2018,07,23,05,45,13.90
2018,07,23,05,46,13.90
2018,07,23,05,47,13.90
2018,07,23,05,48,13.90
2018,07,23,05,49,13.90
2018,07,23,05,50,13.80
2018,07,23,05,51,13.80
2018,07,23,05,52,13.80
2018,07,23,05,53,13.80
2018,07,23,05,54,13.80
2018,07,23,05,55,13.80
2018,07,23,05,56,13.80
2018,07,23,05,57,13.70
2018,07,23,05,58,13.70
2018,07,23,05,59,13.70
2018,07,23,06,00,13.70
2018,07,23,06,01,13.70
2018,07,23,06,02,13.70
2018,07,23,06,03,13.70
2018,07,23,06,04,13.70
2018,07,23,06,05,13.70
2018,07,23,06,06,13.70
2018,07,23,06,07,13.70
2018,07,23,06,08,13.70
2018,07,23,06,09,13.70
2018,07,23,06,10,13.70
2018,07,23,06,11,13.70
2018,07,23,06,12,13.70
2018,07,23,06,13,13.70
2018,07,23,06,14,13.70
2018,07,23,06,15,13.70
2018,07,23,06,16,13.70
2018,07,23,06,17,13.70
2018,07,23,06,18,13.70
2018,07,23,06,19,13.70
2018,07,23,06,20,13.70
2018,07,23,06,21,13.70
2018,07,23,06,22,13.70
2018,07,23,06,23,13.70
2018,07,23,06,24,13.70
2018,07,23,06,25,13.70
2018,07,23,06,26,13.70
2018,07,23,06,27,13.80
2018,07,23,06,28,13.80
2018,07,23,06,29,13.80
2018,07,23,06,30,13.80
2018,07,23,06,31,13.80
2018,07,23,06,32,13.80
2018,07,23,06,33,13.80
2018,07,23,06,34,13.80
2018,07,23,06,35,13.80
2018,07,23,06,36,13.80
2018,07,23,06,37,13.80
2018,07,23,06,38,13.80
2018,07,23,06,39,13.80
2018,07,23,06,40,13.90
2018,07,23,06,41,13.90
2018,07,23,06,42,13.90
2018,07,23,06,43,13.90
2018,07,23,06,44,13.90
2018,07,23,06,45,13.90
2018,07,23,06,46,13.90
2018,07,23,06,47,13.90
2018,07,23,06,48,13.90
2018,07,23,06,49,13.90
2018,07,23,06,50,13.90
2018,07,23,06,51,13.90
2018,07,23,06,52,13.90
2018,07,23,06,53,13.90
2018,07,23,06,54,13.90
2018,07,23,06,55,13.90
2018,07,23,06,56,13.90
2018,07,23,06,57,13.90
2018,07,23,06,58,13.90
2018,07,23,06,59,13.90
2018,07,23,07,00,13.90
2018,07,23,07,01,13.90
2018,07,23,07,02,14.00
2018,07,23,07,03,14.00
2018,07,23,07,04,14.10
2018,07,23,07,05,14.10
2018,07,23,07,06,14.20
2018,07,23,07,07,14.30
2018,07,23,07,08,14.30
2018,07,23,07,09,14.40
2018,07,23,07,10,14.50
2018,07,23,07,11,14.50
2018,07,23,07,12,14.60
2018,07,23,07,13,14.70
2018,07,23,07,14,14.80
2018,07,23,07,15,14.80
2018,07,23,07,16,15.00
2018,07,23,07,17,15.00
2018,07,23,07,18,15.00
2018,07,23,07,19,15.00
2018,07,23,07,20,15.10
2018,07,23,07,21,15.20
2018,07,23,07,22,15.20
2018,07,23,07,23,15.30
2018,07,23,07,24,15.40
2018,07,23,07,25,15.50
2018,07,23,07,26,15.60
2018,07,23,07,27,15.70
2018,07,23,07,28,15.80
2018,07,23,07,29,16.00
2018,07,23,07,30,16.10
2018,07,23,07,31,16.20
2018,07,23,07,32,16.40
2018,07,23,07,33,16.60
2018,07,23,07,34,16.80
2018,07,23,07,35,17.00
2018,07,23,07,36,17.20
2018,07,23,07,37,17.40
2018,07,23,07,38,17.60
2018,07,23,07,39,17.80
2018,07,23,07,40,17.90
2018,07,23,07,41,18.10
2018,07,23,07,42,18.30
2018,07,23,07,43,18.40
2018,07,23,07,44,18.60
2018,07,23,07,45,18.80
2018,07,23,07,46,18.90
2018,07,23,07,47,19.10
2018,07,23,07,48,19.20
2018,07,23,07,49,19.40
2018,07,23,07,50,19.60
2018,07,23,07,51,19.70
2018,07,23,07,52,19.90
2018,07,23,07,53,20.00
2018,07,23,07,54,20.20
2018,07,23,07,55,20.30
2018,07,23,07,56,20.50
2018,07,23,07,57,20.60
2018,07,23,07,58,20.80
2018,07,23,07,59,20.90
2018,07,23,08,00,21.00
2018,07,23,08,01,21.20
2018,07,23,08,02,21.30
2018,07,23,08,03,21.40
2018,07,23,08,04,21.50
2018,07,23,08,05,21.60
2018,07,23,08,06,21.70
2018,07,23,08,07,21.70
2018,07,23,08,08,21.80
2018,07,23,08,09,21.80
2018,07,23,08,10,21.80
2018,07,23,08,11,21.90
2018,07,23,08,12,22.00
2018,07,23,08,13,22.10
2018,07,23,08,14,22.20
2018,07,23,08,15,22.20
2018,07,23,08,16,22.30
2018,07,23,08,17,22.30
2018,07,23,08,18,22.30
2018,07,23,08,19,22.30
2018,07,23,08,20,22.30
2018,07,23,08,21,22.40
2018,07,23,08,22,22.40
2018,07,23,08,23,22.50
2018,07,23,08,24,22.40
2018,07,23,08,25,22.40
2018,07,23,08,26,22.40
2018,07,23,08,27,22.40
2018,07,23,08,28,22.40
2018,07,23,08,29,22.40
2018,07,23,08,30,22.40
2018,07,23,08,31,22.40
2018,07,23,08,32,22.40
2018,07,23,08,33,22.40
2018,07,23,08,34,22.40
2018,07,23,08,35,22.40
2018,07,23,08,36,22.50
2018,07,23,08,37,22.60
2018,07,23,08,38,22.60
2018,07,23,08,39,22.70
2018,07,23,08,40,22.70
2018,07,23,08,41,22.70
2018,07,23,08,42,22.70
2018,07,23,08,43,22.80
2018,07,23,08,44,22.80
2018,07,23,08,45,22.90
2018,07,23,08,46,23.00
2018,07,23,08,47,23.10
2018,07,23,08,48,23.10
2018,07,23,08,49,23.20
2018,07,23,08,50,23.20
2018,07,23,08,51,23.30
2018,07,23,08,52,23.40
2018,07,23,08,53,23.50
2018,07,23,08,54,23.60
2018,07,23,08,55,23.70
2018,07,23,08,56,23.80
2018,07,23,08,57,23.80
2018,07,23,08,58,23.90
2018,07,23,08,59,24.00
2018,07,23,09,00,24.00
2018,07,23,09,01,24.10
2018,07,23,09,02,24.00
2018,07,23,09,03,24.00
2018,07,23,09,04,23.90
2018,07,23,09,05,23.90
2018,07,23,09,06,23.90
2018,07,23,09,07,23.90
2018,07,23,09,08,23.90
2018,07,23,09,09,24.00
2018,07,23,09,10,24.00
2018,07,23,09,11,24.10
2018,07,23,09,12,24.10
2018,07,23,09,13,24.10
2018,07,23,09,14,24.10
2018,07,23,09,15,24.10
2018,07,23,09,16,24.10
2018,07,23,09,17,24.10
2018,07,23,09,18,24.10
2018,07,23,09,19,24.10
2018,07,23,09,20,24.00
2018,07,23,09,21,24.00
2018,07,23,09,22,24.00
2018,07,23,09,23,24.00
2018,07,23,09,24,24.00
2018,07,23,09,25,24.00
2018,07,23,09,26,24.00
2018,07,23,09,27,24.00
2018,07,23,09,28,24.00
2018,07,23,09,29,24.10
2018,07,23,09,30,24.20
2018,07,23,09,31,24.20
2018,07,23,09,32,24.30
2018,07,23,09,33,24.30
2018,07,23,09,34,24.30
2018,07,23,09,35,24.30
2018,07,23,09,36,24.40
2018,07,23,09,37,24.50
2018,07,23,09,38,24.60
2018,07,23,09,39,24.60
2018,07,23,09,40,24.70
2018,07,23,09,41,24.80
2018,07,23,09,42,24.90
2018,07,23,09,43,24.90
2018,07,23,09,44,25.00
2018,07,23,09,45,25.00
2018,07,23,09,46,25.10
2018,07,23,09,47,25.20
2018,07,23,09,48,25.20
2018,07,23,09,49,25.20
2018,07,23,09,50,25.20
2018,07,23,09,51,25.20
2018,07,23,09,52,25.20
2018,07,23,09,53,25.20
2018,07,23,09,54,25.30
2018,07,23,09,55,25.40
2018,07,23,09,56,25.50
2018,07,23,09,57,25.50
2018,07,23,09,58,25.60
2018,07,23,09,59,25.60
2018,07,23,10,00,25.70
2018,07,23,10,01,25.70
2018,07,23,10,02,25.70
2018,07,23,10,03,25.80
2018,07,23,10,04,25.80
2018,07,23,10,05,25.80
2018,07,23,10,06,25.80
2018,07,23,10,07,25.80
2018,07,23,10,08,25.80
2018,07,23,10,09,25.90
2018,07,23,10,10,25.90
2018,07,23,10,11,25.90
2018,07,23,10,12,25.90
2018,07,23,10,13,26.00
2018,07,23,10,14,26.00
2018,07,23,10,15,26.20
2018,07,23,10,16,26.30
2018,07,23,10,17,26.40
2018,07,23,10,18,26.60
2018,07,23,10,19,26.70
2018,07,23,10,20,26.70
2018,07,23,10,21,26.70
2018,07,23,10,22,26.70
2018,07,23,10,23,26.70
2018,07,23,10,24,26.60
2018,07,23,10,25,26.50
2018,07,23,10,26,26.30
2018,07,23,10,27,26.10
2018,07,23,10,28,25.90
2018,07,23,10,29,25.80
2018,07,23,10,30,25.70
2018,07,23,10,31,25.70
2018,07,23,10,32,25.60
2018,07,23,10,33,25.50
2018,07,23,10,34,25.40
2018,07,23,10,35,25.30
2018,07,23,10,36,25.10
2018,07,23,10,37,25.00
2018,07,23,10,38,24.90
2018,07,23,10,39,24.90
2018,07,23,10,40,24.80
2018,07,23,10,41,24.80
2018,07,23,10,42,24.80
2018,07,23,10,43,24.70
2018,07,23,10,44,24.70
2018,07,23,10,45,24.60
2018,07,23,10,46,24.60
2018,07,23,10,47,24.60
2018,07,23,10,48,24.70
2018,07,23,10,49,24.70
2018,07,23,10,50,24.70
2018,07,23,10,51,24.70
2018,07,23,10,52,24.80
2018,07,23,10,53,24.90
2018,07,23,10,54,25.00
2018,07,23,10,55,25.10
2018,07,23,10,56,25.10
2018,07,23,10,57,25.00
2018,07,23,10,58,24.90
2018,07,23,10,59,24.80
2018,07,23,11,00,24.60
2018,07,23,11,01,24.60
2018,07,23,11,02,24.50
2018,07,23,11,03,24.50
2018,07,23,11,04,24.40
2018,07,23,11,05,24.40
2018,07,23,11,06,24.40
2018,07,23,11,07,24.50
2018,07,23,11,08,24.70
2018,07,23,11,09,24.70
2018,07,23,11,10,24.70
2018,07,23,11,11,24.70
2018,07,23,11,12,24.80
2018,07,23,11,13,24.80
2018,07,23,11,14,24.90
2018,07,23,11,15,24.90
2018,07,23,11,16,24.90
2018,07,23,11,17,24.80
2018,07,23,11,18,24.80
2018,07,23,11,19,24.80
2018,07,23,11,20,24.80
2018,07,23,11,21,24.90
2018,07,23,11,22,24.90
2018,07,23,11,23,24.90
2018,07,23,11,24,25.00
2018,07,23,11,25,25.10
2018,07,23,11,26,25.30
2018,07,23,11,27,25.30
2018,07,23,11,28,25.50
2018,07,23,11,29,25.60
2018,07,23,11,30,25.70
2018,07,23,11,31,25.60
2018,07,23,11,32,25.60
2018,07,23,11,33,25.60
2018,07,23,11,34,25.50
2018,07,23,11,35,25.50
2018,07,23,11,36,25.40
2018,07,23,11,37,25.40
2018,07,23,11,38,25.50
2018,07,23,11,39,25.60
2018,07,23,11,40,25.70
2018,07,23,11,41,25.80
2018,07,23,11,42,25.90
2018,07,23,11,43,26.00
2018,07,23,11,44,26.10
2018,07,23,11,45,26.20
2018,07,23,11,46,26.20
2018,07,23,11,47,26.20
2018,07,23,11,48,26.10
2018,07,23,11,49,26.10
2018,07,23,11,50,25.90
2018,07,23,11,51,25.80
2018,07,23,11,52,25.80
2018,07,23,11,53,25.70
2018,07,23,11,54,25.70
2018,07,23,11,55,25.70
2018,07,23,11,56,25.90
2018,07,23,11,57,26.00
2018,07,23,11,58,26.00
2018,07,23,11,59,25.90
2018,07,23,12,00,25.90
2018,07,23,12,01,26.00
2018,07,23,12,02,26.10
2018,07,23,12,03,26.10
2018,07,23,12,04,26.20
2018,07,23,12,05,26.30
2018,07,23,12,06,26.40
2018,07,23,12,07,26.50
2018,07,23,12,08,26.60
2018,07,23,12,09,26.70
2018,07,23,12,10,26.80
2018,07,23,12,11,26.90
2018,07,23,12,12,27.00
2018,07,23,12,13,27.10
2018,07,23,12,14,27.20
2018,07,23,12,15,27.20
2018,07,23,12,16,27.10
2018,07,23,12,17,27.10
2018,07,23,12,18,27.20
2018,07,23,12,19,27.20
2018,07,23,12,20,27.30
2018,07,23,12,21,27.30
2018,07,23,12,22,27.50
2018,07,23,12,23,27.60
2018,07,23,12,24,27.60
2018,07,23,12,25,27.40
2018,07,23,12,26,27.20
2018,07,23,12,27,27.00
2018,07,23,12,28,27.00
2018,07,23,12,29,27.00
2018,07,23,12,30,26.90
2018,07,23,12,31,26.90
2018,07,23,12,32,26.90
2018,07,23,12,33,26.90
2018,07,23,12,34,26.80
2018,07,23,12,35,26.80
2018,07,23,12,36,26.70
2018,07,23,12,37,26.70
2018,07,23,12,38,26.60
2018,07,23,12,39,26.60
2018,07,23,12,40,26.60
2018,07,23,12,41,26.60
2018,07,23,12,42,26.70
2018,07,23,12,43,26.70
2018,07,23,12,44,26.80
2018,07,23,12,45,27.00
2018,07,23,12,46,27.10
2018,07,23,12,47,27.10
2018,07,23,12,48,26.90
2018,07,23,12,49,26.90
2018,07,23,12,50,26.90
2018,07,23,12,51,26.80
2018,07,23,12,52,26.90
2018,07,23,12,53,26.90
2018,07,23,12,54,26.90
2018,07,23,12,55,26.90
2018,07,23,12,56,27.00
2018,07,23,12,57,27.10
2018,07,23,12,58,27.20
2018,07,23,12,59,27.40
2018,07,23,13,00,27.50
2018,07,23,13,01,27.60
2018,07,23,13,02,27.70
2018,07,23,13,03,27.80
2018,07,23,13,04,27.80
2018,07,23,13,05,27.80
2018,07,23,13,06,27.80
2018,07,23,13,07,27.80
2018,07,23,13,08,27.80
2018,07,23,13,09,27.90
2018,07,23,13,10,27.90
2018,07,23,13,11,27.80
2018,07,23,13,12,27.90
2018,07,23,13,13,28.00
2018,07,23,13,14,28.10
2018,07,23,13,15,28.20
2018,07,23,13,16,28.20
2018,07,23,13,17,28.10
2018,07,23,13,18,28.00
2018,07,23,13,19,28.00
2018,07,23,13,20,28.00
2018,07,23,13,21,28.10
2018,07,23,13,22,28.20
2018,07,23,13,23,28.30
2018,07,23,13,24,28.30
2018,07,23,13,25,28.40
2018,07,23,13,26,28.50
2018,07,23,13,27,28.50
2018,07,23,13,28,28.50
2018,07,23,13,29,28.40
2018,07,23,13,30,28.50
2018,07,23,13,31,28.50
2018,07,23,13,32,28.50
2018,07,23,13,33,28.40
2018,07,23,13,34,28.40
2018,07,23,13,35,28.40
2018,07,23,13,36,28.30
2018,07,23,13,37,28.30
2018,07,23,13,38,28.20
2018,07,23,13,39,28.20
2018,07,23,13,40,28.20
2018,07,23,13,41,28.30
2018,07,23,13,42,28.40
2018,07,23,13,43,28.30
2018,07,23,13,44,28.30
2018,07,23,13,45,28.30
2018,07,23,13,46,28.40
2018,07,23,13,47,28.40
2018,07,23,13,48,28.40
2018,07,23,13,49,28.40
2018,07,23,13,50,28.30
2018,07,23,13,51,28.30
2018,07,23,13,52,28.40
2018,07,23,13,53,28.40
2018,07,23,13,54,28.40
2018,07,23,13,55,28.30
2018,07,23,13,56,28.30
2018,07,23,13,57,28.30
2018,07,23,13,58,28.20
2018,07,23,13,59,28.20
2018,07,23,14,00,28.30
2018,07,23,14,01,28.20
2018,07,23,14,02,28.10
2018,07,23,14,03,28.10
2018,07,23,14,04,28.10
2018,07,23,14,05,28.00
2018,07,23,14,06,28.00
2018,07,23,14,07,28.00
2018,07,23,14,08,28.10
2018,07,23,14,09,28.10
2018,07,23,14,10,28.20
2018,07,23,14,11,28.30
2018,07,23,14,12,28.40
2018,07,23,14,13,28.50
2018,07,23,14,14,28.60
2018,07,23,14,15,28.60
2018,07,23,14,16,28.70
2018,07,23,14,17,28.80
2018,07,23,14,18,28.80
2018,07,23,14,19,29.00
2018,07,23,14,20,29.10
2018,07,23,14,21,29.20
2018,07,23,14,22,29.40
2018,07,23,14,23,29.60
2018,07,23,14,24,29.80
2018,07,23,14,25,30.00
2018,07,23,14,26,30.20
2018,07,23,14,27,30.30
2018,07,23,14,28,30.40
2018,07,23,14,29,30.50
2018,07,23,14,30,30.60
2018,07,23,14,31,30.70
2018,07,23,14,32,30.70
2018,07,23,14,33,30.70
2018,07,23,14,34,30.60
2018,07,23,14,35,30.70
2018,07,23,14,36,30.80
2018,07,23,14,37,30.70
2018,07,23,14,38,30.70
2018,07,23,14,39,30.60
2018,07,23,14,40,30.60
2018,07,23,14,41,30.40
2018,07,23,14,42,30.40
2018,07,23,14,43,30.30
2018,07,23,14,44,30.30
2018,07,23,14,45,30.30
2018,07,23,14,46,30.30
2018,07,23,14,47,30.20
2018,07,23,14,48,30.20
2018,07,23,14,49,30.10
2018,07,23,14,50,30.10
2018,07,23,14,51,30.20
2018,07,23,14,52,30.20
2018,07,23,14,53,30.20
2018,07,23,14,54,30.10
2018,07,23,14,55,30.10
2018,07,23,14,56,30.00
2018,07,23,14,57,30.00
2018,07,23,14,58,30.10
2018,07,23,14,59,30.10
2018,07,23,15,00,30.20
2018,07,23,15,01,30.30
2018,07,23,15,02,30.50
2018,07,23,15,03,30.50
2018,07,23,15,04,30.60
2018,07,23,15,05,30.60
2018,07,23,15,06,30.70
2018,07,23,15,07,30.70
2018,07,23,15,08,30.70
2018,07,23,15,09,30.70
2018,07,23,15,10,30.70
2018,07,23,15,11,30.80
2018,07,23,15,12,30.80
2018,07,23,15,13,30.70
2018,07,23,15,14,30.60
2018,07,23,15,15,30.60
2018,07,23,15,16,30.60
2018,07,23,15,17,30.60
2018,07,23,15,18,30.70
2018,07,23,15,19,30.70
2018,07,23,15,20,30.80
2018,07,23,15,21,30.90
2018,07,23,15,22,30.90
2018,07,23,15,23,31.00
2018,07,23,15,24,31.10
2018,07,23,15,25,31.20
2018,07,23,15,26,31.40
2018,07,23,15,27,31.60
2018,07,23,15,28,31.70
2018,07,23,15,29,31.60
2018,07,23,15,30,31.40
2018,07,23,15,31,31.30
2018,07,23,15,32,31.20
2018,07,23,15,33,31.10
2018,07,23,15,34,31.10
2018,07,23,15,35,31.00
2018,07,23,15,36,31.10
2018,07,23,15,37,31.20
2018,07,23,15,38,31.20
2018,07,23,15,39,31.20
2018,07,23,15,40,31.20
2018,07,23,15,41,31.20
2018,07,23,15,42,31.30
2018,07,23,15,43,31.30
2018,07,23,15,44,31.30
2018,07,23,15,45,31.20
2018,07,23,15,46,31.00
2018,07,23,15,47,30.80
2018,07,23,15,48,30.70
2018,07,23,15,49,30.70
2018,07,23,15,50,30.60
2018,07,23,15,51,30.60
2018,07,23,15,52,30.60
2018,07,23,15,53,30.60
2018,07,23,15,54,30.70
2018,07,23,15,55,30.60
2018,07,23,15,56,30.60
2018,07,23,15,57,30.70
2018,07,23,15,58,30.70
2018,07,23,15,59,30.80
2018,07,23,16,00,30.90
2018,07,23,16,01,30.90
2018,07,23,16,02,30.90
2018,07,23,16,03,30.90
2018,07,23,16,04,30.90
2018,07,23,16,05,30.90
2018,07,23,16,06,30.80
2018,07,23,16,07,30.90
2018,07,23,16,08,30.90
2018,07,23,16,09,31.00
2018,07,23,16,10,31.00
2018,07,23,16,11,31.10
2018,07,23,16,12,31.00
2018,07,23,16,13,30.90
2018,07,23,16,14,30.90
2018,07,23,16,15,30.90
2018,07,23,16,16,30.80
2018,07,23,16,17,30.70
2018,07,23,16,18,30.70
2018,07,23,16,19,30.80
2018,07,23,16,20,30.90
2018,07,23,16,21,30.90
2018,07,23,16,22,31.00
2018,07,23,16,23,31.00
2018,07,23,16,24,31.00
2018,07,23,16,25,30.80
2018,07,23,16,26,30.60
2018,07,23,16,27,30.50
2018,07,23,16,28,30.40
2018,07,23,16,29,30.40
2018,07,23,16,30,30.40
2018,07,23,16,31,30.40
2018,07,23,16,32,30.30
2018,07,23,16,33,30.30
2018,07,23,16,34,30.40
2018,07,23,16,35,30.40
2018,07,23,16,36,30.40
2018,07,23,16,37,30.50
2018,07,23,16,38,30.50
2018,07,23,16,39,30.60
2018,07,23,16,40,30.60
2018,07,23,16,41,30.60
2018,07,23,16,42,30.70
2018,07,23,16,43,30.70
2018,07,23,16,44,30.70
2018,07,23,16,45,30.80
2018,07,23,16,46,30.80
2018,07,23,16,47,30.70
2018,07,23,16,48,30.70
2018,07,23,16,49,30.80
2018,07,23,16,50,30.80
2018,07,23,16,51,30.80
2018,07,23,16,52,30.80
2018,07,23,16,53,30.80
2018,07,23,16,54,30.70
2018,07,23,16,55,30.70
2018,07,23,16,56,30.60
2018,07,23,16,57,30.60
2018,07,23,16,58,30.60
2018,07,23,16,59,30.60
2018,07,23,17,00,30.60
2018,07,23,17,01,30.70
2018,07,23,17,02,30.80
2018,07,23,17,03,30.80
2018,07,23,17,04,30.90
2018,07,23,17,05,31.00
2018,07,23,17,06,31.10
2018,07,23,17,07,31.20
2018,07,23,17,08,31.30
2018,07,23,17,09,31.30
2018,07,23,17,10,31.30
2018,07,23,17,11,31.20
2018,07,23,17,12,31.20
2018,07,23,17,13,31.10
2018,07,23,17,14,31.00
2018,07,23,17,15,30.90
2018,07,23,17,16,30.90
2018,07,23,17,17,30.90
2018,07,23,17,18,30.90
2018,07,23,17,19,30.80